Location: Moscow
(38.3171°N, 79.0889°W)
Time: 22:15:36
(UTC+00:00)

SAR-Lupe-4 - Pass Details

Date: 07 November 2025
Orbit: 476 x 483 km, 98.1° (Epoch: 03 October)

Event Time Altitude Azimuth Distance (km) Brightness Sun altitude
Rises 22:33:38 0° 159° (SSE) 2,531 7.2 -5.2°
Reaches altitude 10° 22:35:41 10° 157° (SSE) 1,656 6.2 -5.6°
Maximum altitude 22:39:12 64° 75° (ENE) 539 3.5 -6.2°
Drops below altitude 10° 22:42:45 10° 354° (N) 1,669 6.2 -6.9°
Sets 22:44:50 0° 351° (N) 2,553 7.2 -7.3°
